SCOUT B R/B, 2206

Orbit data source: Space-Track

SCOUT B R/B, 2206 is space debris in LEO originally from a launch on Fri, 10 Jun 1966 UTC launched from the Wallops Island (WLPIS). Debris objects in space refer to the collection of defunct objects orbiting the Earth. Examples of debris include non-operational satellites, rocket bodies, and fragments generated from explosions, collisions, or faulty payload assembly.

Loading next visibility...
Identifier
2206, 1966-052B
Orbit
LEO
Last TLE update
23 hours ago
Origin
Manufacturer
UTC
Mission
Spacecraft
Bus & Motor
FW4, Unknown motor
Mass
47 kg wet, 47 kg dry
Launch date (UTC)
1966-06-10 (59 years ago)
Launch vehicle
Unknown
Launch site
Wallops Island (WLPIS)
Object type
Payload
Rocket body
Debris
Shape & HBR
Cyl, 1.5 m
Radar Cross Section
0.687 m², Medium (>0.1 m² and < 1m²)

Expand to show TLE details & history

TLE from 23 hours ago
0 SCOUT B R/B
1 02206U 66052B   25181.44786130  .00000135  00000-0  25976-3 0  9990
2 02206  40.8490 192.5236 2208325  21.6899 346.4249 10.14349528167061
Epoch: 2025-06-30T10:44Z
TLE epoch observation values (Epoch: 2025-06-30T10:44:55.216Z)
Latitude
0.00004°
Longitude
112.53605°
Altitude
735.928 km
Speed
8.238 km/s
True Right ascension
12h 50m 05s
True Declination
0° 00' 00"
Sunlit
Object was in daylight at epoch
Visualization orbit readout
Latitude
-16.38524°
Longitude
-49.99112°
Altitude
4,629.857 km
Speed
5.313 km/s
Apparent Right ascension
03h 47m 40s
Apparent Declination
-34° 21' 51"
Sunlit
Object is in daylight
Visualization observer readout
Local Sidereal Time
20:57:41
Azimuth
111.553° ESE
Elevation
-29.946°
Doppler factor
1
Orbital elements
Apogee altitude
4,629.413 km
Perigee altitude
647.172 km
Semi-major axis
9,016.43 km
Eccentricity
0.22083
Inclination
40.849°
RAAN
192.5236°
Arg. of periapsis
21.6899°
True anomaly
Unknown
Mean anomaly
346.4249°
Eccentric anomaly
Unknown
Mean motion
2.53508 °/min
Orbital period
142.01 mins
BSTAR
0.00025976
Loading maneuver chart data...
Loading SW <> Apogee altitude chart data...
Loading historical data...
Loading historical data...
Loading historical data...
Loading historical data...
Loading historical data...
Loading historical data...
Loading historical data...
Other satellites on launch #52 in the year 1966 (1966-06-10 UTC)

SCOUT B R/B Visibility forecast

Observer location: undefined°, undefined°

Span
Click to sort rows by Start time (UTC) header in descending order
Start Az.
Max El. time (UTC)
Max El. Az.
Max El.
End time (UTC)
End Az.
32 mins2025-07-01 10:52:25.648Z280.14° WNW2025-07-01 11:03:25.648Z209.991° SW37.414°2025-07-01 11:24:25.648Z146.669° SSE
23 mins2025-07-01 13:27:25.648Z257.744° W2025-07-01 13:36:25.648Z227.764° WSW18.018°2025-07-01 13:50:25.648Z193.638° SSW
6 mins2025-07-02 03:07:25.648Z177.813° S2025-07-02 03:09:25.648Z144.125° SSE21.148°2025-07-02 03:13:25.648Z92.439° ESE
13 mins2025-07-02 05:34:25.648Z255.199° W2025-07-02 05:38:25.648Z105.226° ESE44.835°2025-07-02 05:47:25.648Z79.896° E
23 mins2025-07-02 08:02:25.648Z280.565° WNW2025-07-02 08:08:25.648Z252.272° W44.823°2025-07-02 08:25:25.648Z107.326° ESE
|